Theta_e
302 302 302 303 303 303 302 302 301 301 300 300 299 299 298 298 297 297 296 296 295 295 295 294 294 293 292 292 291 291 291 291 290 290 290 290 290 291 290 290 289 289 289 288 288 288 289 289 289 289 290 290 290 291 291 291 290 290 289 288 288 287 287 287 287 287 288 288 289 289 289 289 289 289 289 289 289 290 290 290 290 290 290 290 291 291
302 302 303 303 303 302 301 301 300 300 299 299 299 298 298 297 296 296 296 295 295 295 294 294 293 293 292 292 292 291 291 291 290 290 290 290 291 291 291 290 290 289 289 289 288 288 288 288 288 289 290 290 290 291 291 290 290 289 288 288 287 287 287 287 287 287 288 288 288 289 289 289 289 289 289 289 289 289 289 289 289 290 290 290 290 291
301 302 303 302 301 300 300 299 299 299 299 298 298 297 297 296 296 295 295 295 295 294 294 294 293 293 293 292 292 291 291 291 291 290 290 290 291 291 291 291 290 290 289 289 288 288 288 288 289 289 290 290 290 291 290 290 289 288 288 287 287 287 287 287 287 287 287 288 288 288 288 288 288 288 288 288 288 289 289 289 289 290 290 290 291 291
302 303 303 302 301 300 299 299 299 299 298 298 297 297 296 296 295 295 295 294 294 294 294 293 293 293 293 292 292 292 291 291 291 291 291 291 291 291 291 291 290 290 289 289 288 288 288 289 289 289 290 290 290 290 290 289 289 288 288 287 287 287 286 286 287 287 287 287 287 287 287 287 287 287 288 288 288 288 289 289 289 290 290 290 290 291
302 302 302 301 300 300 299 299 299 298 298 297 296 296 295 295 295 295 294 294 294 294 294 293 293 293 293 293 292 292 292 292 292 291 291 291 291 291 291 291 291 290 290 289 289 288 288 289 289 290 290 290 290 289 289 289 289 289 288 288 287 287 286 286 286 287 287 287 287 287 287 287 287 287 288 288 288 288 289 289 289 289 289 290 290 290
302 302 301 300 300 299 299 298 298 297 297 296 296 295 295 295 294 294 294 294 294 294 294 294 293 293 293 293 293 292 292 292 292 292 292 291 291 291 291 291 291 291 290 290 289 289 289 289 289 289 289 289 289 289 289 289 289 289 289 288 287 287 286 286 286 287 287 287 287 286 287 287 287 287 288 288 288 288 289 289 289 289 289 289 289 289
302 301 300 300 299 298 298 298 297 296 296 295 295 295 295 295 294 294 294 294 294 294 294 293 293 293 293 292 292 292 292 292 292 292 292 291 291 291 291 291 291 290 290 290 290 289 289 289 289 289 289 289 289 289 290 290 290 289 289 288 288 287 286 286 286 286 286 286 286 286 286 287 287 287 288 288 288 288 288 289 289 289 289 289 289 289
301 301 300 299 299 298 297 297 296 296 295 295 295 295 295 295 295 295 295 294 294 294 294 293 293 293 292 292 292 292 291 291 291 291 291 291 291 291 291 290 290 290 290 290 289 289 289 289 289 289 289 289 290 290 290 290 290 289 289 288 287 287 286 286 286 286 286 286 286 286 286 287 287 287 288 288 288 288 288 288 288 288 288 288 288 289
301 300 299 299 298 297 297 296 296 295 295 295 295 295 295 295 295 295 294 294 294 294 293 293 293 292 292 292 291 291 291 291 291 291 291 291 291 290 290 290 290 290 290 290 290 290 290 290 290 290 290 290 290 290 290 290 289 289 288 287 287 286 286 286 286 286 286 286 286 286 287 287 287 287 287 288 288 288 288 288 288 288 288 288 288 289
300 299 299 298 297 297 296 296 295 295 295 295 295 295 295 295 295 295 294 294 294 294 293 293 292 292 291 291 291 291 291 291 290 290 290 290 290 290 290 290 290 290 290 290 290 290 290 290 290 290 290 290 290 290 290 289 289 288 287 287 286 286 286 286 286 286 286 286 286 286 287 287 287 287 287 287 287 287 287 287 287 287 288 288 288 288
299 298 298 297 296 296 295 295 295 295 295 295 295 295 295 295 295 295 294 294 294 293 293 292 292 291 291 291 291 291 291 291 291 290 290 290 290 290 291 290 291 291 291 290 290 290 290 290 289 289 289 289 289 289 289 289 288 287 287 286 286 285 285 285 286 286 286 286 286 286 287 287 287 287 287 287 287 287 287 287 287 287 287 287 288 288
299 298 297 296 296 295 295 295 295 295 295 295 295 295 295 295 295 294 294 293 293 293 292 292 291 291 291 291 291 291 291 291 291 291 291 291 291 291 291 291 291 291 290 290 290 290 290 289 289 289 289 289 289 289 288 288 287 287 286 286 285 285 285 285 285 285 286 286 286 286 286 287 287 287 287 286 286 286 287 287 287 287 287 287 287 288
298 297 296 296 295 295 295 295 295 295 296 296 295 295 295 294 294 294 293 293 293 292 292 292 291 291 291 291 291 291 291 291 291 291 291 291 291 291 291 291 291 291 291 290 290 290 290 289 289 289 289 289 289 288 288 287 287 286 286 285 285 285 285 285 285 285 286 286 286 286 286 286 286 286 286 286 286 286 286 286 286 286 286 287 287 287
297 296 296 295 295 296 296 296 296 296 295 295 295 295 294 294 294 293 293 293 292 292 292 291 291 291 291 291 291 291 291 291 291 291 291 291 291 291 291 291 291 291 291 290 290 290 290 290 289 289 289 289 288 288 287 287 286 286 285 285 285 285 285 285 285 285 286 286 286 286 286 286 286 285 285 285 285 286 286 286 286 286 286 286 287 287
296 296 296 296 296 295 295 295 295 295 295 295 294 294 294 294 293 293 293 292 292 292 291 291 291 291 291 291 291 291 291 291 291 291 291 291 291 291 291 291 291 291 291 290 290 290 290 289 289 289 289 288 288 288 287 286 286 285 285 285 285 285 285 285 285 286 286 286 286 285 285 285 285 285 285 285 285 285 285 285 285 286 286 286 287 287
296 296 296 295 295 295 295 295 295 295 294 294 294 294 294 293 293 293 292 292 291 291 291 291 291 291 291 291 291 291 291 291 291 291 291 291 291 291 291 291 291 291 290 290 290 290 289 289 289 289 289 288 288 287 287 286 286 285 285 285 285 285 285 285 285 286 286 286 285 285 284 285 285 285 285 285 284 284 284 284 285 285 286 286 286 287
296 295 295 295 295 296 295 295 295 295 294 294 294 294 293 293 292 292 292 291 291 291 292 292 292 292 292 292 292 292 292 292 291 291 291 291 291 291 291 291 291 290 290 290 289 289 289 289 289 289 288 288 287 287 286 286 285 285 285 285 286 286 286 286 286 285 285 285 284 284 284 284 284 284 284 284 284 284 284 284 284 285 285 286 286 286
295 296 296 296 296 296 295 295 294 294 294 294 294 293 292 292 292 291 291 291 292 292 293 293 293 292 292 292 292 292 292 292 292 292 291 291 291 290 290 290 290 290 289 289 289 289 289 289 289 288 288 287 287 286 286 285 285 285 285 286 286 286 286 286 286 285 285 284 284 284 284 284 284 284 283 283 283 283 283 284 284 284 285 286 286 286
295 296 296 296 295 295 295 294 294 294 294 293 293 292 292 292 291 291 291 292 292 293 293 293 293 292 292 292 292 292 291 291 291 290 290 290 290 289 289 289 289 289 289 289 289 289 289 289 288 288 287 287 286 286 285 285 285 285 286 286 286 286 286 286 285 285 284 284 284 284 283 283 283 283 283 283 283 283 284 284 285 285 285 286 286 287
295 295 295 295 295 294 294 294 294 294 293 293 292 292 292 292 292 292 292 292 293 293 292 292 291 291 291 290 290 289 289 289 289 289 289 289 289 289 289 289 289 289 289 289 289 289 289 288 288 287 287 286 286 286 285 285 285 285 286 286 286 286 285 285 284 284 284 284 284 284 283 283 283 283 283 283 284 284 284 285 285 286 286 286 287 287
295 295 294 294 294 294 294 294 294 293 293 292 292 292 292 292 293 293 293 293 292 292 291 291 290 290 290 289 289 289 288 289 289 289 289 289 289 289 289 289 289 288 289 289 288 288 288 287 287 286 286 286 286 285 285 285 285 285 285 285 285 285 285 284 284 284 284 284 284 283 283 283 283 283 284 284 284 284 285 285 286 286 286 287 287 287
295 294 294 294 294 294 294 293 293 292 292 292 292 292 293 293 293 293 293 292 291 291 291 290 290 290 289 289 289 289 289 289 289 289 289 289 289 289 289 288 288 288 288 288 288 287 287 287 286 286 286 286 285 285 285 285 285 285 285 285 285 285 284 284 284 284 284 283 283 283 283 283 284 284 284 284 285 285 286 286 286 287 287 287 287 287
294 294 294 293 293 293 293 292 292 292 292 292 292 292 293 293 293 292 292 291 291 290 290 290 289 289 289 289 289 289 289 289 289 289 289 289 289 289 288 288 288 288 287 287 287 286 286 286 286 286 286 285 285 285 285 285 285 285 285 285 284 284 284 284 284 284 283 283 283 283 283 284 284 284 284 285 285 286 286 286 287 287 287 287 287 287
293 293 293 293 293 293 293 293 293 292 292 291 291 291 292 292 292 292 291 291 290 290 289 289 289 289 289 289 289 289 289 289 289 289 289 289 289 288 288 288 288 287 287 286 286 286 286 286 286 286 285 285 285 285 285 285 285 285 285 284 284 284 284 283 283 283 283 283 283 283 283 284 284 284 285 285 285 286 286 287 287 287 287 287 287 287
293 293 293 293 293 293 292 292 292 291 291 290 290 290 290 291 291 291 290 290 289 289 289 289 289 288 288 288 288 288 289 289 289 289 289 289 289 288 288 287 287 286 286 286 286 286 286 286 285 285 285 285 285 285 285 285 284 284 284 284 284 284 284 283 283 283 283 283 283 283 283 284 284 284 285 285 286 286 286 287 287 287 287 287 287 286
293 293 293 293 293 292 292 291 290 290 289 289 289 289 290 290 289 289 289 289 289 288 288 288 288 288 288 288 288 288 288 289 289 289 289 288 288 288 287 287 286 286 286 286 286 286 285 285 285 285 285 285 285 284 284 284 284 284 284 284 284 284 283 283 283 283 283 283 283 283 284 284 284 285 285 286 286 286 286 286 287 287 287 287 287 287
293 293 292 292 291 290 290 289 289 288 288 289 289 289 289 289 289 288 288 288 288 288 288 288 288 288 288 288 288 288 288 288 288 288 288 288 287 287 286 286 286 285 285 285 285 285 285 285 285 285 285 284 284 284 284 284 284 284 284 284 283 283 283 283 283 283 283 283 283 284 284 285 285 285 286 286 286 286 286 286 287 287 287 287 287 287
292 291 290 289 289 288 288 288 288 288 288 288 289 289 289 288 288 287 287 287 287 287 287 287 287 287 287 287 287 288 288 288 288 288 287 287 286 286 286 285 285 285 285 285 285 285 285 285 285 284 284 284 284 284 284 284 284 284 284 283 283 283 283 283 283 283 283 283 284 284 285 285 286 286 286 286 286 286 286 287 287 286 286 286 286 287
289 288 287 287 287 287 287 287 287 287 287 288 288 288 288 287 287 287 286 286 286 286 286 286 286 287 287 287 287 287 287 287 287 287 287 286 286 285 285 285 285 285 285 285 284 284 284 284 284 284 284 284 284 284 284 284 284 284 283 283 283 283 283 283 283 283 283 284 284 285 285 286 286 286 286 286 287 287 286 286 286 286 286 286 286 286
287 286 286 286 286 286 286 286 286 286 286 287 287 287 287 287 286 286 286 286 286 286 285 285 286 286 286 287 287 287 287 287 287 286 286 286 285 285 285 285 284 284 284 284 284 284 284 284 284 284 284 284 284 284 284 284 283 283 283 283 283 283 283 283 283 283 284 284 285 286 286 286 286 286 287 287 287 286 286 286 286 286 285 285 286 286
286 286 286 286 286 286 286 286 286 287 287 287 287 286 286 286 286 286 286 286 286 286 285 285 285 286 286 286 286 286 286 286 286 286 286 285 285 285 284 284 284 284 284 284 284 284 284 284 284 284 284 284 284 283 283 283 283 283 283 283 283 283 283 283 283 284 284 285 286 286 286 286 287 286 286 286 286 286 286 286 286 285 285 285 285 286
286 286 286 286 286 286 287 287 287 287 287 286 286 286 286 286 286 286 286 286 286 286 286 285 285 285 285 285 286 286 286 286 285 285 285 285 285 284 284 284 284 284 284 284 284 284 284 284 283 283 283 283 283 283 283 283 283 283 283 283 283 283 283 283 284 284 285 286 286 286 286 286 286 286 286 286 286 286 286 286 285 285 285 285 286 286
286 286 286 286 286 286 287 287 287 286 286 286 286 285 285 285 285 285 286 286 286 286 286 285 285 285 285 285 285 285 285 285 285 285 285 284 284 284 284 283 283 283 283 283 283 283 283 283 283 283 283 283 283 283 283 283 283 283 283 283 283 283 283 283 284 284 285 285 286 286 286 286 286 286 286 286 286 286 286 286 286 286 286 286 286 287
286 286 286 286 286 286 286 286 286 286 285 285 285 285 285 285 285 285 286 286 286 286 286 285 285 285 285 285 285 285 285 285 285 285 284 284 284 283 283 283 283 283 283 283 283 283 282 282 282 282 283 283 283 283 283 283 283 283 283 283 283 283 283 283 284 284 285 285 285 285 285 285 285 285 285 286 286 286 286 287 287 287 287 287 287 288
286 286 286 286 286 286 286 286 285 285 285 285 285 285 285 285 285 285 286 286 286 286 286 285 285 284 285 285 285 285 285 284 284 284 284 284 283 283 283 283 283 283 282 282 282 282 282 282 282 282 282 282 283 283 283 283 283 283 283 282 282 283 283 283 284 284 285 285 285 285 284 284 285 285 285 286 286 287 287 288 288 288 288 288 288 288
286 286 286 286 286 286 285 285 285 285 285 285 285 285 285 285 285 285 286 286 286 286 285 285 285 285 285 285 285 284 284 284 284 284 284 283 283 283 283 283 283 282 282 282 282 282 282 282 282 282 282 282 282 282 283 283 283 283 282 283 283 283 283 284 284 284 284 284 284 284 284 284 284 285 286 286 287 288 288 288 289 289 289 289 289 289
286 286 286 285 285 285 285 285 285 285 285 285 285 285 285 285 285 285 286 286 286 285 285 285 285 285 285 285 284 284 284 284 284 284 283 283 283 283 282 282 282 282 282 281 281 281 281 281 281 281 281 281 281 282 282 283 283 283 282 283 283 283 284 284 284 284 284 284 284 284 284 284 284 285 286 287 288 288 289 289 289 289 289 289 289 289
285 285 285 285 285 285 285 285 285 285 285 285 284 284 284 284 285 285 286 286 285 285 284 284 284 284 284 284 284 284 284 284 284 284 283 283 283 282 282 282 282 282 281 281 281 281 281 281 281 281 281 281 281 281 282 282 282 282 282 283 283 284 284 284 284 284 284 284 284 284 284 284 285 286 287 287 288 288 289 289 289 289 289 289 289 289
285 285 285 284 284 284 284 285 285 285 285 284 284 284 284 284 285 285 285 285 285 284 284 284 284 284 284 284 284 284 284 284 284 283 283 283 282 282 282 282 282 281 281 281 281 281 280 280 280 280 280 281 281 281 282 282 282 282 282 283 284 285 285 285 284 284 284 284 284 284 285 285 286 286 287 288 288 288 289 289 289 289 289 289 289 289
284 284 284 284 284 284 284 284 284 284 284 284 284 284 284 284 285 285 284 284 284 284 284 284 284 284 284 284 284 284 284 284 283 283 283 283 282 282 282 282 281 281 281 281 281 280 280 280 280 280 280 280 280 281 281 281 282 281 282 282 284 285 285 285 284 284 284 284 284 285 285 286 286 287 287 288 288 288 288 289 289 289 289 289 289 289
284 284 284 284 284 284 284 284 284 284 284 284 284 284 284 284 284 284 283 283 283 283 284 284 284 284 284 284 284 284 284 284 283 283 283 282 282 282 282 281 281 281 281 280 280 280 280 280 280 280 280 280 280 281 281 281 281 281 282 282 283 284 284 284 284 284 284 285 285 285 285 286 286 287 288 288 288 288 288 289 289 289 289 289 288 289
283 283 283 283 284 284 284 284 284 284 284 284 284 284 283 283 283 283 283 284 284 284 284 284 284 284 283 283 283 284 284 283 283 283 282 282 282 282 281 281 281 280 280 280 280 280 280 280 280 280 280 280 280 280 281 282 282 282 282 282 283 283 284 284 284 284 285 285 285 285 286 286 287 287 288 288 288 289 289 289 289 288 288 288 288 288
283 283 283 283 283 283 284 284 285 285 285 284 284 283 283 283 283 283 283 284 284 284 284 284 284 283 283 283 283 283 283 283 283 282 282 282 282 281 281 281 280 280 280 280 280 280 280 280 280 280 280 280 280 280 281 281 282 282 283 283 282 283 283 284 285 285 285 285 285 286 286 286 287 288 288 288 288 289 289 288 288 288 288 288 288 288
283 283 283 283 283 283 284 284 285 285 285 284 284 283 283 283 283 283 283 284 284 283 283 283 283 283 283 283 283 283 283 283 282 282 282 282 281 281 281 280 280 280 280 280 280 280 280 281 281 281 281 280 280 281 281 281 282 283 283 283 283 282 283 283 284 285 285 286 286 286 286 287 287 288 288 288 288 288 288 288 288 288 288 288 289 289
282 282 282 283 283 283 284 285 285 285 285 284 284 283 283 283 283 283 284 284 283 283 283 283 283 283 283 283 283 283 282 282 282 282 281 281 281 281 281 280 280 281 281 280 280 280 280 280 281 281 281 281 281 281 281 281 282 282 283 283 283 283 283 284 284 285 285 286 286 286 287 287 287 288 288 289 288 288 288 288 288 288 288 289 289 289
282 282 282 282 283 283 284 285 285 285 285 284 284 283 283 283 283 284 284 283 283 283 283 283 283 283 283 283 283 282 282 282 282 281 281 281 281 281 281 281 281 281 281 281 281 280 280 280 281 281 281 281 281 281 281 282 282 282 283 283 283 284 285 285 285 285 286 286 286 287 287 288 288 288 288 289 289 289 288 288 288 288 288 289 289 289
282 281 281 282 283 283 284 284 284 284 284 284 284 284 283 283 284 284 284 283 283 283 283 283 283 283 283 283 282 282 282 282 281 281 281 281 281 280 281 281 281 281 281 281 281 281 281 281 281 281 281 281 281 282 282 282 282 282 283 283 284 284 285 286 286 286 286 286 287 287 287 288 288 288 288 288 289 289 288 288 288 288 289 289 289 289
281 281 281 282 282 283 283 284 284 284 284 284 284 284 283 283 284 284 283 283 283 283 283 283 283 283 283 282 282 282 282 282 281 281 281 281 280 280 281 281 281 281 281 281 281 281 281 281 281 281 281 281 282 282 282 282 282 282 283 283 284 284 285 286 286 287 287 287 287 287 287 287 287 287 288 288 288 288 288 288 289 289 289 289 289 289
281 281 281 281 282 283 283 283 283 284 284 284 284 284 284 284 284 283 283 283 283 283 283 283 283 283 282 282 282 282 282 281 281 281 280 280 280 280 281 281 281 281 281 281 281 281 282 282 282 282 282 282 282 282 282 282 282 283 283 283 284 284 285 286 287 287 287 288 288 288 288 288 287 287 287 287 287 288 288 288 289 289 289 289 289 289
281 281 281 281 282 282 283 283 283 284 284 284 284 284 284 284 284 283 283 283 283 283 283 283 283 283 282 282 282 282 281 281 281 281 280 280 280 280 280 281 281 281 281 281 282 282 282 282 282 282 282 282 281 281 282 282 283 283 283 284 284 284 285 286 287 287 287 288 288 288 288 288 288 287 287 287 287 287 288 288 288 289 289 289 289 289
280 281 281 281 282 282 283 283 283 284 284 284 285 284 284 283 283 283 283 283 283 283 283 283 283 282 282 282 282 282 281 281 281 280 280 280 280 280 280 280 280 280 281 281 281 281 281 282 282 282 282 282 281 281 282 282 283 283 284 284 285 285 285 286 287 287 288 288 288 288 288 288 288 287 287 287 287 287 287 288 288 288 289 289 289 289
Wind_Speed
26 28 29 29 27 26 26 24 24 25 25 25 25 26 27 28 30 31 33 34 34 35 35 34 33 33 32 31 31 30 30 29 29 29 29 29 29 28 28 28 27 26 25 25 24 23 23 23 23 23 23 23 23 23 24 24 25 27 28 29 30 31 32 32 32 32 31 30 30 30 30 30 30 30 30 29 29 28 28 28 27 27 27 27 27 27
28 29 29 27 26 26 26 25 25 26 27 27 28 28 29 31 32 33 34 34 34 34 33 32 31 31 30 30 30 29 29 28 28 28 29 29 28 27 27 27 27 26 25 24 24 23 23 23 23 23 23 23 23 24 24 25 27 28 29 30 31 32 32 33 33 33 32 31 31 31 31 31 31 30 30 29 28 28 27 27 27 27 27 27 27 27
29 29 27 25 24 24 25 25 25 26 27 29 30 30 31 32 33 34 34 34 33 32 31 30 29 29 29 29 29 29 28 28 28 28 28 28 27 27 27 27 26 25 24 24 23 23 23 23 23 23 23 23 23 24 25 26 27 28 30 31 32 32 33 33 34 34 33 33 32 32 32 31 31 30 29 28 27 27 27 27 26 27 27 27 27 27
28 27 25 24 24 24 24 25 25 27 28 29 31 31 32 32 33 33 33 32 31 30 29 28 27 27 28 28 28 28 28 28 28 28 28 27 27 26 26 26 26 25 24 23 22 22 22 22 22 22 23 23 23 24 25 26 28 29 30 31 32 33 33 34 34 34 34 34 33 33 33 32 31 30 28 27 26 26 26 26 26 27 27 27 27 27
26 24 24 24 24 24 25 25 26 28 29 30 30 30 30 30 30 30 30 29 28 27 26 26 26 27 27 27 27 27 27 27 27 28 28 28 27 26 26 26 25 25 24 23 22 22 22 22 22 22 23 23 24 25 26 28 29 30 31 32 32 33 34 34 35 35 34 34 34 33 32 31 30 28 27 26 26 26 26 26 26 27 27 27 27 27
23 23 23 24 24 24 25 25 26 27 28 28 28 27 27 27 27 27 27 26 25 25 25 25 25 26 26 26 26 26 26 26 26 27 27 27 27 26 25 25 24 24 23 23 22 22 22 22 23 23 24 24 25 27 28 29 31 32 32 33 33 33 34 35 35 35 35 34 34 32 31 29 28 26 26 26 26 26 26 26 27 27 27 27 27 27
23 23 24 24 24 25 25 25 26 25 25 25 25 24 24 24 24 24 24 24 24 24 25 25 25 24 24 23 23 23 24 24 24 25 25 25 25 25 24 24 23 22 22 22 21 21 22 23 23 24 25 26 28 29 30 31 32 33 33 33 34 34 34 35 35 36 36 34 33 31 29 28 27 26 26 25 26 26 26 27 27 27 27 27 27 26
24 24 24 24 25 25 25 25 25 24 22 22 22 23 23 23 23 23 24 24 24 24 24 24 24 23 22 22 22 22 23 24 24 24 24 24 24 24 24 24 23 22 21 20 20 20 21 22 24 25 26 28 29 30 31 32 32 33 33 33 33 34 34 35 35 36 35 34 32 30 28 27 26 26 25 26 26 26 27 27 27 27 27 27 26 26
25 25 25 25 25 25 26 25 23 21 20 20 21 22 23 23 23 23 23 23 23 22 22 22 22 22 22 22 23 24 25 25 25 24 24 24 24 24 24 24 23 22 20 20 20 21 22 23 24 25 26 27 28 29 30 30 31 32 32 33 33 33 34 35 35 35 34 32 30 28 27 26 26 25 25 26 26 27 27 27 27 27 27 27 26 26
26 26 26 26 25 24 24 23 21 20 20 20 21 22 23 24 24 23 23 23 22 21 21 21 22 24 25 26 26 26 27 27 25 24 23 22 22 23 23 23 22 21 21 22 24 25 26 26 27 27 27 27 27 27 28 29 30 31 31 32 32 33 34 35 35 34 32 30 28 27 26 26 25 26 26 26 27 27 27 27 27 27 27 27 26 26
26 26 26 25 24 23 21 21 20 21 21 21 21 21 21 21 21 22 24 25 24 23 22 22 23 26 28 29 29 28 28 27 25 23 22 21 20 21 21 21 21 22 23 24 26 28 29 29 30 29 29 28 28 28 28 29 30 30 31 32 32 33 33 34 33 32 31 28 27 26 26 26 26 26 27 27 27 27 27 27 27 27 27 26 26 26
26 26 25 24 22 21 20 20 20 20 20 20 20 21 21 20 20 22 24 26 26 25 24 25 26 27 29 30 30 29 27 25 24 23 22 21 20 20 20 20 20 21 22 24 26 28 30 31 31 31 30 29 28 28 28 29 29 30 31 31 31 32 32 32 32 30 29 27 26 26 26 26 27 27 28 28 29 29 28 28 28 27 27 27 27 27
26 25 23 22 21 20 19 19 19 19 19 19 20 21 22 23 23 24 25 25 24 24 25 27 28 29 29 28 28 26 25 24 23 22 22 21 20 19 19 19 20 21 22 24 26 28 30 31 32 31 30 29 28 28 28 28 29 29 30 30 30 30 31 30 29 28 26 26 26 26 26 27 27 28 29 29 29 29 29 29 29 29 28 27 27 26
23 22 21 20 19 19 19 19 19 19 20 21 22 23 24 25 24 24 23 23 23 24 26 28 29 29 28 26 25 24 23 23 23 22 22 21 19 19 19 20 20 22 23 24 26 28 30 31 31 31 29 28 27 27 28 28 29 29 30 29 29 29 29 28 27 26 25 26 26 26 27 27 28 29 29 29 29 29 29 29 29 28 27 26 26 26
21 20 19 19 19 20 20 20 20 21 21 22 23 23 24 24 23 22 22 23 25 26 28 28 28 28 26 24 23 23 22 21 21 21 21 20 19 19 19 19 21 23 24 25 27 29 30 31 30 29 28 27 27 27 28 29 29 29 29 28 28 28 27 26 26 25 26 26 27 28 28 29 29 29 29 29 29 29 28 28 28 27 27 26 25 25
19 19 19 21 22 22 22 21 21 22 23 23 23 23 22 22 22 22 23 24 27 28 28 28 27 26 24 22 20 19 18 19 19 19 20 20 19 19 20 22 24 26 27 27 28 29 30 30 29 28 27 27 27 28 28 29 29 29 28 27 27 27 26 26 26 26 26 27 28 28 29 29 29 29 29 28 28 27 27 27 27 27 27 26 26 26
20 21 22 23 24 23 22 21 21 22 23 23 22 21 21 21 22 24 25 26 28 29 28 27 25 23 22 21 19 17 17 18 19 20 21 22 23 23 24 26 28 29 29 28 28 29 29 28 27 26 26 27 28 28 29 29 28 27 27 27 26 26 26 26 26 26 27 28 28 28 28 28 28 28 27 27 27 27 27 27 27 27 27 27 26 26
21 22 22 22 22 22 22 22 23 23 23 22 21 22 22 23 25 26 27 28 29 29 28 26 24 24 24 24 22 21 21 23 24 26 26 27 27 27 28 28 28 28 28 28 28 27 26 25 25 25 26 27 28 28 28 28 27 27 26 26 26 26 26 26 26 27 28 28 28 27 27 27 27 27 26 26 27 27 27 27 27 26 26 25 25 25
22 22 22 22 22 23 23 23 23 22 21 21 22 24 26 27 28 29 28 28 27 25 24 24 25 26 27 27 27 28 30 31 32 32 32 32 32 31 29 26 26 26 26 27 26 25 24 23 23 24 26 27 27 28 27 27 26 26 25 25 25 25 26 26 26 27 27 26 26 25 25 25 25 26 26 26 26 26 26 26 26 25 25 25 25 25
23 23 23 23 24 24 24 23 21 21 21 23 24 26 28 30 31 31 29 27 24 22 23 24 27 29 30 31 33 35 36 35 34 33 32 31 30 28 26 24 24 25 25 26 25 23 21 21 22 24 25 26 27 26 26 26 25 25 25 25 25 26 26 27 27 26 25 24 23 23 23 24 24 25 25 25 26 26 26 25 25 24 24 24 24 25
23 23 23 23 23 24 23 22 22 22 23 24 25 26 28 29 30 29 27 25 23 24 25 28 30 32 34 35 37 38 36 33 29 28 27 27 26 26 24 23 23 24 24 23 22 20 19 21 23 24 25 26 26 26 25 25 25 25 25 25 26 27 28 28 26 24 23 22 21 22 22 22 23 24 24 25 25 25 24 24 24 23 23 23 24 24
23 24 23 22 22 22 23 23 24 24 24 24 25 27 28 27 27 26 25 24 24 26 28 29 31 32 34 34 35 34 32 28 25 24 24 24 24 24 24 23 23 22 22 21 20 20 20 22 23 24 25 25 25 25 24 24 24 25 25 26 28 29 29 27 25 22 21 20 20 20 21 21 22 23 24 24 24 24 23 23 23 22 23 23 24 25
22 23 23 22 22 22 23 23 24 24 24 25 26 27 28 28 27 26 25 25 26 27 28 29 30 31 31 31 30 29 27 24 23 23 23 23 23 24 24 24 24 23 21 21 20 20 21 22 23 24 25 25 25 24 24 24 24 25 26 27 28 29 28 25 23 21 19 19 19 19 20 21 22 22 23 23 23 23 23 22 22 22 23 24 25 26
21 22 22 22 22 22 22 23 24 25 26 26 27 29 31 31 30 29 28 28 28 28 28 29 29 29 28 27 25 24 22 22 22 22 22 22 23 24 25 25 24 22 21 20 20 20 21 22 23 24 24 24 24 24 24 24 25 26 27 28 29 28 26 23 21 19 19 19 19 19 20 20 21 22 22 22 22 22 22 22 23 23 24 25 26 28
20 20 20 20 21 21 23 24 26 27 27 27 28 28 29 30 30 29 29 29 28 27 27 26 26 25 24 23 22 21 20 21 22 22 22 22 23 25 25 25 22 20 19 20 20 20 21 23 24 24 24 24 24 24 24 25 26 27 29 30 29 27 24 21 20 19 19 19 19 19 19 20 20 21 21 22 22 22 22 22 23 24 25 26 28 30
18 19 20 21 23 25 26 27 27 27 26 26 25 26 27 28 28 28 28 26 25 24 24 23 23 23 22 21 20 19 20 22 23 23 22 21 21 22 23 22 20 19 19 20 20 20 21 23 24 24 24 24 24 25 26 27 28 30 30 30 29 26 23 21 20 20 19 19 19 18 19 19 19 20 20 20 20 21 21 22 23 25 26 28 30 31
20 22 24 26 27 27 28 27 26 25 23 23 22 23 24 25 26 26 24 23 22 21 21 21 22 22 21 20 19 19 20 22 22 21 20 19 19 20 21 21 20 19 19 20 21 21 21 22 23 23 23 24 25 26 28 29 30 31 31 30 28 25 22 21 20 20 20 19 18 18 17 18 18 18 18 19 19 20 21 23 24 26 27 29 31 32
25 26 27 27 26 25 24 22 21 21 20 20 20 20 21 22 23 22 21 20 20 19 19 19 20 20 20 20 19 19 20 20 19 18 18 17 18 19 20 21 20 19 19 20 21 21 21 21 21 22 23 25 26 28 30 31 32 32 32 30 27 24 22 21 21 20 20 19 18 17 16 16 17 17 18 19 20 21 22 24 25 27 28 29 30 32
26 25 24 23 22 21 20 19 19 19 18 17 17 18 18 19 19 19 19 19 19 19 19 19 19 19 20 20 20 19 19 17 16 17 18 19 19 20 21 21 20 20 19 20 21 22 22 22 22 22 24 26 27 29 31 32 33 33 32 29 27 24 23 22 21 20 19 18 17 17 16 16 17 18 19 20 21 22 24 24 25 26 27 28 29 30
24 23 22 21 19 19 18 18 18 17 16 15 15 16 17 17 17 18 18 19 20 20 20 19 18 18 18 19 19 18 16 15 16 18 20 20 20 20 21 21 20 19 18 18 20 21 22 24 24 24 24 26 28 30 31 32 32 32 31 29 26 24 23 22 21 20 19 18 18 17 17 18 18 19 20 21 22 23 24 24 24 25 26 27 28 28
22 21 21 20 19 18 17 17 16 15 15 15 15 16 16 16 17 17 18 19 20 20 19 18 16 16 16 17 17 16 14 16 18 20 20 19 19 20 21 21 20 19 17 17 17 19 21 24 26 27 26 28 29 31 32 32 31 30 30 28 26 24 23 23 22 21 20 19 19 19 19 19 20 20 21 22 22 23 23 22 22 23 24 25 25 26
21 21 20 19 18 17 16 15 15 15 15 16 16 16 16 16 17 18 18 19 18 18 17 15 14 14 14 15 15 15 16 17 18 18 18 18 19 21 22 21 20 19 18 17 17 18 19 21 25 28 30 30 31 32 31 31 30 29 28 27 26 24 23 23 23 22 22 21 21 21 21 21 21 22 22 22 22 22 21 20 20 20 21 22 23 23
21 20 20 18 17 15 14 14 14 15 16 17 18 18 17 18 18 18 18 18 17 16 14 13 13 13 14 14 15 16 16 16 16 16 17 18 20 22 22 21 20 20 20 20 19 18 19 21 24 28 31 32 33 32 31 30 29 28 27 26 25 25 24 24 24 24 24 24 24 24 24 23 23 23 23 23 22 21 19 18 17 17 18 19 19 20
20 19 18 17 15 14 14 15 16 17 18 19 19 19 19 19 18 18 18 17 15 14 12 12 12 12 13 14 15 15 15 15 15 17 18 19 21 22 22 22 21 21 21 21 21 21 21 23 25 27 30 33 33 32 31 29 28 27 26 25 25 25 25 25 25 25 26 26 26 26 25 25 25 25 24 23 21 19 17 15 14 14 14 15 16 17
19 17 16 15 15 15 16 18 19 20 20 21 21 20 20 19 18 18 16 15 14 12 11 11 11 12 12 13 14 15 15 16 16 18 19 20 21 22 23 22 22 21 21 21 21 21 22 24 26 26 28 31 33 32 31 29 28 27 25 24 24 24 24 25 25 26 27 27 27 26 26 26 26 25 24 22 19 17 15 13 13 13 13 14 15 16
17 16 15 16 16 17 18 20 21 22 22 21 20 20 19 18 18 16 15 13 12 11 11 11 11 11 12 13 14 15 16 17 17 18 20 21 22 22 23 23 23 22 21 21 21 22 23 25 26 27 28 29 30 31 31 29 27 26 25 24 24 24 24 25 25 26 27 27 27 27 26 25 25 24 22 19 17 15 14 13 13 14 15 16 18 19
15 15 16 16 17 18 19 21 21 22 21 20 20 19 18 17 16 15 13 11 10 10 11 11 11 12 12 14 15 16 17 18 19 20 21 22 23 23 23 23 23 22 22 21 22 23 24 25 27 28 28 27 27 28 30 29 27 26 25 24 24 24 24 25 26 26 27 27 27 26 25 25 24 22 20 17 15 14 13 13 14 15 17 18 19 20
14 15 16 17 18 19 20 20 20 20 20 19 18 17 16 16 14 12 10 9 10 11 11 11 12 12 13 14 16 17 18 19 20 21 23 23 23 23 23 23 23 22 22 22 22 23 23 24 25 26 27 27 27 27 28 28 27 26 25 24 24 24 25 25 26 27 27 27 26 25 24 23 22 20 19 17 16 15 14 15 15 17 18 19 20 20
15 16 17 17 18 18 19 19 19 19 18 18 17 16 16 14 12 10 9 10 11 11 12 12 13 14 15 16 17 18 19 20 21 23 24 24 24 23 23 23 23 23 23 23 23 22 22 23 24 25 25 26 27 27 26 26 25 25 25 25 25 25 25 26 26 27 26 26 26 25 23 22 21 19 18 17 17 17 17 16 17 18 19 20 20 20
16 16 17 17 17 17 17 17 17 17 17 17 16 16 15 12 10 9 9 10 11 12 13 14 16 17 18 18 18 19 19 21 22 24 24 24 24 23 23 23 24 24 24 24 23 23 22 22 23 23 24 24 26 26 25 24 24 24 25 26 27 27 27 27 27 27 26 25 25 24 23 22 20 19 18 17 17 17 18 18 18 18 19 20 21 21
15 16 16 16 16 16 16 15 15 16 16 16 16 15 13 11 9 9 9 10 11 13 14 16 18 19 18 18 17 17 18 20 22 24 24 24 24 23 24 24 25 25 26 25 24 23 23 23 23 22 22 22 23 24 24 23 23 23 24 25 26 27 28 28 27 27 26 24 23 22 22 21 20 19 18 17 17 17 17 18 18 18 19 19 20 21
14 14 15 15 15 15 14 14 14 14 15 15 15 14 12 10 8 8 8 9 9 12 14 17 19 19 18 17 15 14 15 18 20 22 23 24 24 24 24 25 25 26 26 25 25 23 22 22 21 21 21 21 21 22 22 22 22 23 23 24 26 28 29 28 27 26 25 24 23 22 21 21 20 19 18 17 17 17 17 17 18 19 19 20 20 20
14 14 14 14 14 14 13 13 12 13 14 14 14 13 11 9 7 7 7 7 8 11 14 17 19 19 18 16 15 14 14 16 18 20 20 21 22 23 23 24 24 25 24 24 24 23 22 20 20 20 19 19 19 20 22 23 23 24 23 24 25 27 28 29 28 26 25 24 22 22 21 21 21 20 18 18 18 17 18 18 18 19 19 19 20 20
15 14 14 13 13 13 13 13 12 12 13 14 13 12 10 9 8 8 8 8 10 12 15 18 19 18 16 15 15 16 17 18 19 18 18 18 18 19 20 22 23 23 22 22 22 22 21 20 19 18 17 17 18 19 21 22 24 24 24 24 25 25 26 28 28 27 25 23 22 21 21 21 21 20 19 18 18 18 18 19 19 19 19 20 20 21
15 15 14 14 15 15 14 13 12 12 13 12 12 11 10 9 9 10 10 11 13 14 16 17 17 17 16 16 17 18 20 21 21 21 19 18 18 18 19 21 22 22 21 20 19 19 19 19 18 17 15 15 17 18 20 21 23 25 25 25 26 26 27 27 27 26 25 23 22 21 21 21 21 21 20 19 19 19 19 20 20 21 21 21 21 21
15 15 15 15 15 15 15 14 13 12 11 11 11 10 10 10 10 11 12 13 14 15 16 16 16 16 16 17 18 20 21 22 23 23 22 21 20 20 21 22 22 22 20 19 17 16 15 15 15 15 15 16 17 18 19 21 22 24 26 26 27 28 27 27 26 25 24 23 22 21 21 21 21 22 22 21 20 20 20 20 21 21 22 22 22 22
15 15 15 15 15 15 15 14 13 11 10 9 9 9 10 10 11 12 13 14 14 14 15 15 15 16 16 17 18 20 21 23 24 24 23 23 22 22 23 23 23 22 21 19 17 14 12 11 11 12 14 16 18 19 20 21 22 24 26 27 28 29 28 27 25 23 22 21 21 21 21 22 22 23 23 22 22 21 21 21 21 21 22 23 23 23
14 15 15 15 15 15 14 13 12 11 9 8 8 9 10 10 11 12 14 14 15 15 15 15 16 17 18 18 19 20 21 22 23 24 24 24 24 24 24 24 24 23 22 20 17 14 12 10 10 11 12 15 17 19 21 22 23 24 26 27 28 29 28 26 23 21 20 20 20 21 21 22 24 24 24 24 24 23 22 22 22 22 22 23 23 23
14 15 15 15 15 15 14 13 11 10 8 7 7 8 9 10 11 13 14 15 16 15 14 15 17 18 18 19 20 21 22 23 23 24 24 24 25 26 26 26 26 25 24 22 19 16 14 11 10 11 12 14 17 19 21 23 24 25 26 27 28 28 27 25 22 20 19 20 20 21 21 22 23 24 25 26 26 26 24 24 23 23 23 24 24 24
15 16 16 16 16 15 13 12 10 9 8 7 7 8 9 10 12 13 15 16 15 15 15 15 16 17 18 19 20 21 22 23 23 23 23 24 25 26 27 27 27 27 27 25 23 21 18 16 13 12 12 14 16 18 20 22 24 25 26 26 27 27 26 24 21 19 19 20 20 21 22 23 24 24 25 26 27 27 26 26 25 25 24 25 25 25
16 16 17 17 16 15 12 10 9 8 7 7 7 7 9 10 12 14 15 15 15 15 15 16 16 16 17 18 20 21 22 23 23 23 23 24 25 26 26 27 27 28 28 27 26 25 24 22 19 15 13 12 14 16 18 21 23 25 26 26 26 25 24 22 20 19 19 20 21 22 24 24 25 25 26 26 27 28 28 27 27 26 25 25 25 25
Wind_Direction
289 292 294 296 298 301 304 307 309 309 309 308 307 306 306 306 306 307 309 311 313 314 315 315 315 315 315 314 314 314 313 313 313 312 310 308 304 301 301 302 304 304 302 299 297 294 292 291 291 291 292 294 296 297 298 299 300 303 307 310 313 314 315 315 314 312 309 308 307 306 305 305 304 304 303 303 302 301 300 298 297 297 298 299 299 300
288 290 293 297 301 305 308 310 310 310 309 308 307 306 306 306 307 309 311 313 314 314 314 313 312 312 311 311 311 311 311 312 312 312 310 308 304 300 299 300 302 304 303 301 298 295 293 293 292 293 293 295 296 297 298 299 302 306 309 311 312 313 314 314 313 311 308 307 306 305 304 303 303 303 303 303 303 302 300 299 299 299 299 300 299 299
288 291 295 300 304 306 307 308 308 307 306 305 305 305 306 308 309 311 312 313 313 313 312 311 310 308 308 308 309 309 310 311 312 313 312 309 304 301 299 299 300 303 304 302 299 296 295 293 293 293 294 295 296 297 299 302 305 308 310 311 312 313 313 313 312 310 308 306 305 304 303 302 303 303 304 304 303 302 302 301 301 300 300 300 299 299
290 294 299 302 304 304 304 304 304 304 303 303 304 306 308 309 310 311 311 311 311 310 309 308 307 306 305 306 307 308 309 309 310 312 312 310 306 302 300 299 300 303 305 304 301 298 295 294 293 293 294 295 296 299 302 305 308 309 310 310 311 312 312 312 311 309 307 305 304 303 302 303 304 304 305 305 304 303 302 301 301 300 300 300 299 299
293 296 299 301 302 302 303 303 303 303 304 304 306 308 309 309 309 309 309 308 307 306 306 305 305 304 304 304 305 306 307 307 307 309 310 310 308 305 302 301 302 304 305 305 303 300 297 295 293 293 294 296 299 302 305 307 308 308 309 310 311 311 312 311 310 308 306 305 303 303 303 304 305 305 305 305 304 303 302 301 300 300 300 300 299 298
295 297 299 299 300 300 302 302 303 304 305 305 306 306 306 305 304 303 303 302 302 301 302 302 303 303 303 302 303 304 305 305 305 305 306 307 306 305 303 302 302 302 303 303 303 301 299 297 295 295 296 298 300 302 304 305 306 307 308 309 310 311 311 311 310 308 306 305 304 304 305 305 305 305 305 304 303 302 301 301 300 300 299 299 299 298
296 297 298 298 299 299 300 301 303 304 304 303 303 302 300 299 298 298 298 298 297 298 299 300 301 301 302 301 301 301 302 303 302 301 300 300 300 301 301 300 300 300 301 301 301 301 301 300 298 298 297 298 299 301 302 303 304 305 307 308 309 311 311 311 309 308 306 305 305 305 306 305 305 305 305 304 303 302 301 300 300 299 299 299 299 299
296 297 298 298 298 299 300 302 303 304 303 300 298 297 296 296 295 295 296 296 296 298 300 301 302 302 302 301 300 299 299 299 297 296 295 295 296 297 298 299 300 302 304 305 306 306 306 305 303 301 300 300 300 300 301 302 303 304 306 307 309 311 311 310 309 307 306 305 305 305 305 304 304 304 304 303 302 301 300 300 299 299 299 299 299 299
296 297 298 298 298 300 301 302 303 303 301 297 294 293 295 295 295 295 296 296 297 299 301 302 302 302 302 300 299 298 297 297 296 295 294 295 295 297 299 302 305 308 311 313 314 314 314 312 310 308 306 305 304 303 303 303 303 304 306 308 310 311 311 310 308 306 305 305 304 304 304 304 304 304 303 302 301 300 300 299 299 299 299 299 299 299
298 299 299 300 299 300 301 300 300 299 298 295 292 292 292 295 296 298 299 299 300 300 300 299 299 300 300 300 299 298 298 299 299 299 298 298 299 299 301 303 306 310 312 315 316 317 317 317 316 314 313 311 309 307 306 305 305 306 308 311 312 312 311 309 306 305 304 303 303 303 303 304 304 303 302 301 300 299 299 299 300 300 300 300 299 298
300 300 300 300 300 300 298 296 296 297 298 297 296 295 295 297 299 300 301 301 300 299 298 296 296 297 299 300 300 301 301 303 304 305 305 305 304 303 301 301 302 305 307 310 312 314 316 316 316 316 315 313 312 311 309 308 308 309 311 313 313 312 310 307 304 303 303 303 303 303 303 303 302 301 300 299 299 300 300 301 301 301 301 300 299 298
300 299 299 299 299 299 297 296 297 299 300 301 300 301 302 301 299 298 298 298 298 298 297 296 296 296 298 300 302 303 304 303 303 305 306 306 304 302 299 296 296 296 298 301 305 308 311 312 313 313 313 313 312 312 311 310 310 311 312 314 313 311 308 305 303 303 303 303 303 303 303 302 301 300 299 299 299 299 301 300 300 300 299 299 298 297
298 298 299 298 298 297 296 297 298 299 301 301 301 301 300 299 298 297 295 295 295 296 297 298 297 297 298 300 301 302 302 300 299 299 300 300 299 298 295 293 291 290 291 294 298 303 306 308 309 310 311 312 312 311 310 309 309 310 313 314 313 310 307 304 304 303 304 303 303 303 302 301 300 299 298 298 298 298 299 298 297 297 297 298 298 298
297 298 298 297 295 294 294 296 296 297 297 299 299 298 297 299 299 298 297 296 296 296 297 297 296 297 298 300 301 300 298 295 295 294 293 293 294 295 293 290 288 288 290 293 297 301 304 306 307 309 311 311 311 310 308 307 308 311 313 314 313 311 308 307 306 305 304 303 302 302 301 300 299 299 298 298 298 298 298 298 299 300 300 300 300 299
296 297 295 292 291 291 291 292 293 294 295 298 299 300 301 301 301 300 300 299 299 299 298 296 295 295 296 298 302 302 297 293 290 289 287 287 289 290 289 287 287 289 292 295 298 301 304 305 306 307 309 310 309 307 306 307 310 313 315 316 314 312 310 309 308 306 304 303 301 299 298 297 297 298 298 299 299 301 302 303 304 305 304 304 303 301
294 292 291 291 293 294 294 294 294 296 298 300 302 302 301 301 301 301 302 301 301 300 297 295 294 294 296 299 301 301 297 290 287 285 284 284 286 288 290 291 292 294 296 298 300 302 304 305 306 307 307 307 307 307 307 310 313 316 317 316 314 312 311 309 307 305 303 302 300 298 297 297 297 298 299 301 303 305 306 306 306 306 306 306 304 303
293 293 295 297 297 297 297 295 296 298 300 302 302 301 300 300 301 302 303 303 301 298 294 291 290 293 296 301 302 301 297 294 292 290 290 290 292 295 298 299 300 300 300 300 300 302 304 304 305 305 305 305 306 307 310 313 315 317 317 315 312 310 309 307 305 304 302 301 299 298 297 297 299 300 303 305 306 307 307 306 306 306 306 305 304 303
294 297 299 298 297 295 295 295 297 299 301 302 302 301 300 299 299 301 302 302 300 297 294 294 295 296 299 301 303 305 306 306 306 305 304 302 303 304 305 305 303 302 301 300 301 303 303 302 302 302 302 303 305 308 311 314 316 316 316 313 310 308 307 305 304 303 302 301 299 298 299 299 301 303 305 306 306 306 306 306 306 306 305 305 303 302
293 295 295 293 292 292 294 296 298 301 302 303 303 303 301 300 299 299 299 299 297 296 299 303 305 306 307 307 307 307 309 310 310 309 307 305 305 305 307 306 304 302 301 300 300 301 300 298 298 298 299 301 304 308 312 315 316 316 314 312 310 308 306 304 304 304 303 302 301 300 300 301 303 304 305 306 306 306 306 306 306 306 306 305 303 302
291 292 291 291 291 293 294 295 296 298 300 302 303 303 301 299 297 295 294 294 294 295 299 304 307 308 308 307 307 307 308 309 309 307 304 302 303 305 307 307 305 302 301 300 299 299 296 295 295 296 298 301 305 310 314 316 317 316 313 311 309 308 307 306 306 306 305 303 302 301 301 302 303 304 305 306 306 307 307 307 307 307 306 305 304 303
290 290 289 290 291 292 294 294 295 296 299 303 305 305 302 298 296 295 295 296 298 300 302 303 304 305 306 307 308 309 310 311 309 305 302 299 300 303 308 309 308 305 301 299 298 296 295 295 295 297 300 304 309 313 316 318 318 316 313 310 310 310 310 311 311 309 307 305 304 303 303 303 304 305 306 307 307 307 308 308 307 307 306 305 304 303
289 289 290 291 291 291 292 293 295 298 301 305 306 305 303 302 302 302 303 305 306 307 308 307 307 308 309 310 312 313 314 312 308 302 299 295 295 301 307 310 309 305 300 298 297 298 298 298 299 301 305 309 313 317 318 319 318 316 314 312 311 312 313 313 312 311 309 307 306 305 305 305 306 306 307 307 307 307 307 307 307 306 306 304 303 303
289 289 291 292 292 292 293 296 298 300 302 303 303 302 303 305 306 308 308 309 310 311 310 310 311 312 312 313 314 314 314 310 305 300 295 290 292 299 306 308 307 304 301 300 302 303 303 303 303 305 308 312 316 319 320 319 317 315 313 313 313 314 315 315 314 312 312 312 310 309 308 307 307 307 307 307 308 308 308 307 307 306 305 304 303 302
293 294 295 295 295 296 297 298 299 299 299 299 298 298 299 302 305 307 308 310 311 312 312 313 312 311 311 311 312 313 310 305 302 299 295 290 293 299 304 306 308 307 306 306 306 306 305 305 306 308 312 315 319 321 322 320 317 315 315 315 317 318 318 318 317 317 318 317 315 313 310 308 307 307 307 307 307 308 308 307 306 306 305 304 303 302
297 297 297 296 295 294 294 294 294 295 296 298 298 299 300 301 303 304 306 308 311 312 311 309 307 306 306 307 310 310 307 303 303 302 299 295 295 299 303 307 311 312 310 309 309 308 306 307 309 311 314 317 320 322 322 320 318 318 318 320 322 323 323 323 323 324 324 323 320 316 312 309 307 307 307 307 307 307 307 307 306 305 304 304 303 302
291 290 289 289 289 289 290 291 293 295 297 299 300 301 301 301 301 301 302 305 307 308 308 306 304 304 305 307 309 310 308 307 306 304 301 298 298 301 305 311 316 315 311 310 310 309 308 308 310 313 316 319 321 322 322 321 321 322 323 325 327 328 328 328 328 329 329 327 323 318 313 310 308 308 307 307 307 307 307 307 306 306 305 305 304 303
283 284 285 287 288 291 293 296 298 300 302 302 302 302 301 300 299 300 303 305 306 307 307 306 305 305 306 307 309 310 310 308 306 304 302 301 303 308 312 317 319 318 313 310 310 309 309 308 310 313 316 319 321 323 323 324 325 326 328 329 330 331 332 332 333 333 332 329 326 321 317 313 311 310 310 309 309 309 309 309 309 308 308 307 306 304
286 288 291 294 297 300 304 306 308 308 307 306 305 304 301 300 301 302 304 306 307 308 308 306 305 306 307 307 309 310 310 307 305 304 305 307 311 315 317 320 321 319 315 312 312 312 311 310 311 314 317 320 322 324 325 326 327 329 330 332 333 335 336 336 336 335 334 332 330 326 323 319 317 316 314 313 312 312 312 312 312 312 310 309 308 307
296 300 304 308 312 314 315 314 314 313 311 309 307 304 302 303 304 305 306 307 309 310 308 306 305 305 306 306 309 310 309 305 304 305 308 311 314 316 318 321 322 321 319 316 315 315 314 313 314 316 318 321 323 324 326 327 328 330 332 334 336 337 339 339 339 338 337 336 334 332 329 326 323 321 318 316 315 314 314 315 315 314 313 311 310 310
310 314 317 320 321 321 320 319 319 319 318 314 310 306 305 307 308 308 309 311 313 313 313 312 310 308 308 309 311 312 309 306 306 307 310 314 316 317 319 322 323 324 323 320 317 316 315 316 317 318 320 321 323 324 326 327 329 330 333 335 337 339 341 341 341 341 341 340 338 336 333 330 326 323 320 318 317 317 317 318 318 317 315 314 313 313
317 320 321 323 324 325 325 325 326 324 321 316 312 309 308 309 309 309 311 315 317 318 319 318 316 314 312 312 312 311 307 305 307 309 312 316 318 319 321 323 324 325 324 320 317 315 314 315 317 319 321 322 323 324 326 327 329 331 333 334 336 339 342 343 344 344 344 344 341 339 335 332 329 326 324 323 322 322 322 322 321 320 318 317 317 317
319 321 324 326 328 330 331 329 326 322 317 314 312 311 311 309 309 310 313 317 319 321 322 323 323 320 317 314 311 307 304 305 309 313 316 318 319 320 322 324 324 323 323 319 314 311 310 311 314 317 320 322 323 325 327 328 330 331 332 333 335 338 343 345 346 346 346 345 343 341 338 335 333 331 330 329 329 328 327 327 325 323 321 320 319 320
321 325 328 331 332 332 329 325 320 316 314 314 315 315 314 313 313 314 317 319 320 321 323 327 328 327 323 318 311 306 306 309 313 315 316 317 319 321 324 325 323 322 322 320 316 311 307 307 311 315 319 322 324 325 327 329 330 331 332 333 335 339 344 346 346 346 346 345 344 343 341 340 337 336 335 334 334 334 333 333 333 330 327 325 324 326
327 330 333 334 332 328 324 320 317 317 318 319 320 320 319 319 319 320 321 321 320 321 325 330 332 330 326 319 314 311 311 313 314 315 317 320 322 323 325 325 324 323 322 320 318 315 312 311 312 314 317 321 324 326 326 328 330 331 334 335 336 339 343 345 345 345 345 345 345 344 343 341 339 338 338 338 339 340 341 344 346 346 342 340 339 340
331 333 333 332 328 325 322 321 321 322 323 325 325 325 324 324 324 325 324 323 321 322 327 334 337 333 326 320 317 317 318 319 320 322 325 327 328 328 327 327 326 325 322 320 318 316 314 314 314 314 315 318 321 325 327 328 330 332 336 339 340 340 343 345 345 345 345 345 344 343 342 340 339 338 339 341 344 347 352 357 2 6 8 7 5 2
331 330 328 327 326 324 324 324 325 327 328 329 329 328 327 327 327 327 326 325 326 329 336 344 343 337 329 324 322 322 323 326 330 332 333 334 333 332 330 329 328 326 323 320 318 316 314 314 314 315 314 315 317 321 326 330 333 335 339 341 342 343 345 347 347 346 345 344 343 342 341 339 339 340 343 347 351 357 3 9 13 16 18 20 20 18
326 324 324 325 325 325 325 327 328 330 332 333 333 332 329 329 329 330 332 335 340 348 354 353 347 338 332 329 329 329 330 333 335 336 336 337 336 335 333 331 330 328 324 321 318 316 314 314 314 315 315 314 314 317 322 329 335 338 341 343 344 345 347 349 349 348 346 343 342 341 341 340 341 343 348 354 0 6 11 15 17 17 17 19 20 21
323 322 324 326 327 328 328 329 332 334 337 338 337 334 330 330 332 337 345 354 3 6 3 356 348 342 338 337 336 336 337 336 336 337 337 338 338 337 335 333 331 330 328 324 321 318 315 314 313 313 314 314 315 317 321 326 331 336 341 344 346 347 349 350 350 349 346 344 343 342 342 343 345 349 355 1 6 10 13 16 16 14 13 13 15 17
326 327 329 330 330 330 331 333 336 340 342 342 339 334 331 332 338 349 4 12 14 11 4 356 351 348 347 346 345 343 340 338 337 337 338 338 338 338 336 335 333 333 331 329 326 322 318 314 312 311 312 313 315 319 324 328 331 335 340 344 348 351 352 352 351 349 347 345 344 345 346 348 351 355 0 6 10 13 15 16 15 12 11 10 10 11
334 334 334 333 333 334 336 338 342 345 345 342 337 333 331 337 349 6 17 17 12 5 360 357 354 353 353 352 350 345 340 336 335 335 336 337 338 338 337 337 336 335 335 333 330 326 321 317 314 313 312 312 314 318 324 330 334 337 339 340 343 348 352 352 351 349 348 348 348 349 351 353 356 360 4 9 13 15 17 16 14 12 10 10 9 9
338 335 333 334 335 338 340 344 346 346 343 337 332 331 335 345 1 14 19 14 5 358 354 354 354 354 354 355 351 344 335 331 329 330 332 335 337 338 338 338 338 337 336 333 330 327 323 319 317 316 316 316 318 321 326 332 338 341 341 339 339 343 348 350 350 349 349 351 353 354 355 357 360 4 8 12 15 17 17 15 12 11 10 9 9 7
337 335 333 335 338 341 344 349 349 343 336 332 332 336 343 353 8 20 23 15 358 345 344 348 352 354 356 355 350 340 330 325 325 327 330 332 335 336 337 337 337 336 333 330 327 326 324 322 320 319 320 321 322 324 329 338 344 346 344 341 340 342 346 349 352 353 352 355 357 358 358 360 3 8 11 14 16 16 15 14 12 10 9 7 6 5
339 339 340 342 344 346 350 351 345 337 333 336 342 347 351 358 9 19 25 15 354 341 342 350 355 355 352 349 345 339 331 326 326 327 329 330 332 332 332 332 332 332 330 328 326 325 326 325 324 323 325 326 326 327 331 339 346 348 347 345 341 337 336 343 351 356 357 358 359 0 1 2 5 9 12 15 16 16 14 13 13 12 10 8 5 3
344 347 350 351 351 352 353 348 339 333 335 343 350 355 358 5 13 19 20 10 356 349 351 355 356 353 347 340 337 334 332 332 333 334 334 333 331 329 326 327 329 331 332 330 328 327 327 327 327 328 330 330 330 331 335 340 344 347 347 346 342 336 334 340 348 354 357 0 2 3 4 4 6 8 12 16 17 17 16 14 13 13 11 9 6 2
349 353 357 355 353 351 349 344 337 333 337 344 351 356 360 7 11 11 9 3 357 354 355 356 354 349 342 338 335 333 334 336 339 341 342 342 339 334 331 331 334 337 339 338 335 331 328 326 328 332 336 335 334 334 338 341 343 344 345 345 343 342 343 348 352 354 355 359 3 6 6 6 6 7 10 14 17 18 18 16 14 12 10 8 5 2
354 356 357 355 351 348 347 343 337 334 338 342 348 353 358 2 3 1 1 359 356 354 354 355 351 344 338 336 335 335 336 338 341 344 347 348 346 344 342 342 344 346 347 347 344 340 335 331 331 334 337 337 338 341 344 344 342 341 342 344 345 346 349 353 356 357 357 359 2 6 8 7 6 6 7 9 11 14 17 16 14 11 9 6 4 2
358 357 356 353 350 347 345 341 337 336 338 342 346 351 355 356 354 353 356 358 357 355 353 352 348 343 340 338 337 337 338 339 342 345 348 349 349 348 348 349 351 353 354 354 353 350 347 345 345 344 341 338 338 342 346 347 344 341 341 343 345 347 350 353 357 359 0 2 4 7 9 8 7 6 6 5 6 9 12 13 12 10 8 5 2 0
0 358 356 354 351 348 345 341 338 338 342 346 348 350 352 350 347 348 354 359 360 358 353 349 346 344 343 342 341 340 340 341 343 345 347 349 349 350 352 353 355 356 358 1 2 4 4 2 360 356 351 345 341 341 344 345 344 342 341 343 345 347 349 353 356 359 1 3 6 9 10 10 8 6 4 3 3 4 6 8 9 9 7 4 1 359
3 1 359 357 354 350 347 342 340 341 345 350 351 350 347 345 345 349 356 1 2 359 353 347 346 345 345 344 343 343 343 344 345 347 348 349 350 352 353 355 356 357 360 3 8 13 17 19 15 7 360 353 347 343 342 343 342 342 342 343 345 346 348 351 355 358 360 3 6 9 11 12 10 8 5 1 360 0 3 4 6 7 6 3 0 358
6 4 2 359 356 353 349 344 341 341 344 348 349 347 344 342 347 353 359 1 359 355 350 347 347 346 345 344 344 344 345 345 347 348 350 351 351 352 353 356 358 359 0 3 7 12 17 21 23 19 10 360 352 345 341 340 340 342 342 344 345 346 347 349 352 356 358 0 3 7 9 11 11 10 7 2 359 359 0 2 4 5 5 3 0 357
6 5 3 0 357 354 351 346 342 339 339 342 342 341 341 344 350 355 358 358 355 350 348 349 349 347 344 343 344 345 346 348 349 350 350 351 350 350 352 355 357 358 359 360 3 6 9 10 13 18 22 10 357 348 341 339 340 341 342 344 346 347 347 348 351 354 356 359 2 5 7 8 8 8 7 5 1 358 359 360 1 3 5 3 360 356